Location: Ferintosh
(52.7647°N, 112.9692°W)
Time: 14:46:19
(UTC+00:00)

Transit 2A - Pass Details

Date: 20 May 2024
Orbit: 593 x 959 km, 66.7° (Epoch: 14 June)

Event Time Altitude Azimuth Distance (km) Brightness Sun altitude
Rises 07:37:36 0° 225° (SW) 2,948 - -17.1°
Reaches altitude 10° 07:39:47 10° 228° (SW) 2,084 - -17.1°
Exits shadow 07:41:08 20° 230° (SW) 1,573 7.2 -17.1°
Maximum altitude 07:44:30 72° 313° (NW) 753 6.0 -17.0°
Drops below altitude 10° 07:49:47 10° 38° (NE) 2,326 9.4 -17.0°
Sets 07:52:21 0° 40° (NE) 3,321 10.2 -16.9°
